[[{"header":{"parameterUnit":"m.s-1","parameterCategory":1,"la1":30.2991,"la2":30.254,"lo1":-89.0895,"lo2":-89.0444,"dy":0.0017,"dx":0.0017,"nx":28,"ny":28,"refTime":"2025-04-26T21:00:00:Z","depth":0,"parameterNumber":2,"parameterNumberName":"U-component_of_WINDS"},"data":[0,0,0,0,0,0,0,0,0,0,0,0,0,0,0,0,0,0,0,0,0,0,0,0,0,0,0,0,0,0,0,0,0,0,0,0,0,0,0,0,0,0,0,0,0,0,0,0,0,0,0,0,0,0,0,0,0,0,1.0213,1.0215,0,1.0347,1.0349,1.035,1.0396,1.0395,1.0395,1.0394,1.0531,1.0535,1.0539,0,0,0,0,0,0,0,0,0,0,0,0,0,0.9994,0.9997,1.0213,1.0215,1.0216,1.0347,1.0349,1.0351,1.0396,1.0395,1.0395,1.0394,1.0529,1.0534,1.0539,0,0,0,0,0,0,0,0,0,0,0,0,0,1.0104,0.9999,1.0213,1.0255,1.026,1.0347,1.0349,1.0351,1.0396,1.0395,1.0395,1.0394,1.0528,1.0534,1.054,1.0594,0,0,1.0559,1.0561,0,0,0,0,0,0,0,0,1.0098,1.0112,1.0247,1.0252,1.0258,1.0354,1.0322,1.0433,1.0396,1.0344,1.0394,1.0393,1.0472,1.0483,1.051,1.06,1.0606,1.0559,1.0563,1.0566,1.0567,0,0,0,0,0,0,0,1.009,1.0107,1.0266,1.0249,1.0256,1.0266,1.0281,1.0343,1.0411,1.0349,1.0353,1.0368,1.0475,1.0504,1.0514,1.0608,1.0559,1.0564,1.0568,1.0571,1.0749,1.0749,0,0,0,0,0,0,1.0076,1.01,1.0262,1.027,1.0174,1.0271,1.0287,1.0324,1.0411,1.0423,1.0368,1.037,1.0494,1.0506,1.0518,1.0587,1.0565,1.0571,1.0575,1.0748,1.0749,1.075,0,0,0,0,0,0,1.0071,1.009,1.0256,1.0186,1.0208,1.0275,1.0316,1.0327,1.0356,1.0426,1.0438,1.0385,1.0494,1.051,1.0575,1.0592,1.0574,1.058,1.0746,1.0748,1.0749,1.0724,0,0,0,0,0,0,1.0065,1.0088,1.011,1.0186,1.0212,1.0311,1.0317,1.033,1.0367,1.0369,1.0445,1.0456,1.0494,1.0565,1.0581,1.06,1.0585,1.0745,1.0747,1.0749,1.0724,1.0725,1.0726,0,0,0,0,0,1.0057,1.0097,1.0111,1.013,1.0241,1.0312,1.0326,1.037,1.0368,1.039,1.0434,1.0454,1.0588,1.0571,1.0589,1.0611,1.0744,1.0746,1.0749,1.0724,1.0725,1.0726,0,0,0,0,0,0,1.0021,1.0108,1.0124,1.0191,1.0244,1.0319,1.0349,1.037,1.0424,1.0424,1.0475,1.0491,1.0552,1.0588,1.0568,1.0668,1.0667,1.0673,1.0642,1.0643,1.0644,1.0634,1.059,0,0,0,0,0,1.0021,1.0072,1.0145,1.0197,1.0223,1.0281,1.0314,1.0343,1.0399,1.0421,1.0471,1.0524,1.0578,1.0613,1.0667,1.073,1.0746,1.0753,1.0754,1.0754,1.0759,1.0793,1.0797,1.0757,1.0757,1.0757,0,0,1.0021,1.0075,1.0105,1.0192,1.0236,1.0287,1.03,1.0353,1.0391,1.043,1.0494,1.0532,1.0595,1.0658,1.0689,1.069,1.0773,1.0757,1.0757,1.0761,1.0796,1.08,1.0803,1.0759,1.0759,1.0758,0,0,1.0048,1.0095,1.0143,1.0186,1.0253,1.0291,1.0303,1.0375,1.0402,1.0467,1.0497,1.0542,1.0635,1.0678,1.0712,1.0754,1.0773,1.077,1.0774,1.0807,1.081,1.0813,1.0827,1.0832,1.0774,1.0774,1.0774,0,1.004,1.0119,1.0164,1.0216,1.0253,1.029,1.0338,1.0379,1.0459,1.0483,1.0484,1.06,1.0645,1.0719,1.0729,1.0756,1.0769,1.0761,1.0806,1.081,1.0813,1.0827,1.0832,1.0773,1.0773,1.0773,1.0773,0,1.0105,1.0159,1.0189,1.0266,1.0306,1.0356,1.0408,1.0444,1.0469,1.0506,1.0571,1.0627,1.0692,1.0712,1.0737,1.0789,1.0787,1.0797,1.0797,1.0815,1.0829,1.0835,1.0772,1.0772,1.0772,1.0773,0,0,1.0113,1.0214,1.0224,1.0259,1.0335,1.0377,1.0428,1.0492,1.052,1.0575,1.0618,1.0695,1.0703,1.0742,1.0772,1.0801,1.0829,1.0807,1.0809,1.0808,1.0888,1.088,1.0886,1.0843,1.0844,1.0845,1.0883,0,1.0149,1.0242,1.0284,1.0358,1.0407,1.0442,1.0487,1.0537,1.0574,1.062,1.0661,1.0714,1.0722,1.0745,1.0776,1.0819,1.0846,1.0817,1.0882,1.0884,1.0865,1.0893,1.0885,1.0919,1.0889,1.089,1.089,0,1.0203,1.0257,1.0336,1.0405,1.0427,1.0466,1.0527,1.0572,1.0629,1.0654,1.0696,1.0725,1.0779,1.0775,1.0849,1.0829,1.0858,1.0883,1.0886,1.0893,1.0888,1.09,1.0931,1.0935,1.0899,1.0899,1.0898,0,1.02,1.0292,1.0351,1.038,1.0462,1.0488,1.0523,1.0581,1.0616,1.0669,1.0692,1.0751,1.0783,1.0827,1.0871,1.0864,1.094,1.0941,1.0961,1.096,1.0975,1.0973,1.1009,1.0995,1.0995,1.0995,1.0995,0,1.0235,1.0282,1.0351,1.0386,1.0439,1.0487,1.0537,1.0575,1.0625,1.0668,1.0703,1.0742,1.0797,1.0844,1.0878,1.0934,1.0948,1.0968,1.0977,1.0965,1.0962,1.0984,1.0983,1.0996,1.0996,1.0995,1.0995,0,1.024,1.0289,1.0355,1.0427,1.0446,1.0481,1.0543,1.0578,1.0616,1.067,1.0686,1.0745,1.0801,1.0849,1.0923,1.0946,1.1003,1.1014,1.0984,1.0988,1.1005,1.1003,1.1056,1.1065,1.1045,1.1045,1.1045,0,1.0259,1.0296,1.0371,1.0403,1.0438,1.0488,1.0524,1.0572,1.0608,1.0676,1.0703,1.0762,1.0811,1.09,1.0949,1.1005,1.1017,1.1032,1.1026,1.1012,1.1016,1.1013,1.1016,1.1032,1.1032,1.1032,1.1032,0,1.0287,1.0309,1.036,1.0419,1.0461,1.0509,1.0559,1.0582,1.0639,1.0678,1.0736,1.0774,1.085,1.0907,1.0969,1.1005,1.1027,1.1033,1.1041,1.1029,1.101,1.1019,1.0984,1.1032,1.1032,1.1032,1.1032,1.1032,1.03,1.0333,1.0391,1.0446,1.0489,1.0534,1.057,1.0613,1.0662,1.0727,1.0752,1.0811,1.0867,1.0952,1.0988,1.1034,1.1038,1.1049,1.1052,1.1053,1.1051,1.1003,1.1046,1.1046,1.1046,1.1046,1.1046,0,1.0329,1.0368,1.0418,1.0486,1.0529,1.0547,1.0602,1.0636,1.0688,1.0738,1.0786,1.0852,1.0908,1.0961,1.102,1.1046,1.1058,1.106,1.1058,1.1066,1.1045,1.1033,1.1049,1.1049,1.1049,1.1049,1.1049,1.1049,1.0349,1.0406,1.0434,1.0512,1.0551,1.0609,1.0639,1.0681,1.0721,1.0793,1.084,1.0874,1.0925,1.0988,1.1039,1.1053,1.1073,1.1072,1.1088,1.1068,1.1067,1.1066,1.1055,1.1076,1.1076,1.1105,1.1105,1.1105]},{"header":{"parameterUnit":"m.s-1","parameterCategory":1,"la1":30.2991,"la2":30.254,"lo1":-89.0895,"lo2":-89.0444,"dy":0.0017,"dx":0.0017,"nx":28,"ny":28,"refTime":"2025-04-26T21:00:00:Z","depth":0,"parameterNumber":3,"parameterNumberName":"V-component_of_WINDS"},"data":[0,0,0,0,0,0,0,0,0,0,0,0,0,0,0,0,0,0,0,0,0,0,0,0,0,0,0,0,0,0,0,0,0,0,0,0,0,0,0,0,0,0,0,0,0,0,0,0,0,0,0,0,0,0,0,0,0,0,2.1242,2.1241,0,2.1198,2.1197,2.1197,2.114,2.1139,2.1138,2.1137,2.1091,2.1091,2.109,0,0,0,0,0,0,0,0,0,0,0,0,0,2.1275,2.1275,2.1242,2.1241,2.1241,2.1198,2.1197,2.1196,2.114,2.1139,2.1138,2.1137,2.1091,2.1091,2.109,0,0,0,0,0,0,0,0,0,0,0,0,0,2.1249,2.1275,2.1242,2.1207,2.1204,2.1198,2.1197,2.1196,2.114,2.1139,2.1137,2.1136,2.1091,2.1091,2.109,2.1114,0,0,2.1088,2.1088,0,0,0,0,0,0,0,0,2.125,2.1248,2.1213,2.1209,2.1206,2.1173,2.1192,2.1169,2.114,2.1164,2.1137,2.1135,2.1119,2.1116,2.1111,2.1112,2.111,2.1088,2.1088,2.1088,2.1088,0,0,0,0,0,0,0,2.1252,2.1249,2.1224,2.1212,2.1208,2.1193,2.1188,2.1187,2.115,2.1162,2.1158,2.1153,2.1117,2.1112,2.1109,2.111,2.1088,2.1088,2.1088,2.1087,2.1127,2.1128,0,0,0,0,0,0,2.126,2.1251,2.1226,2.1223,2.1225,2.1194,2.1188,2.1185,2.115,2.1143,2.1155,2.1151,2.1113,2.111,2.1108,2.1133,2.1088,2.1087,2.1087,2.1126,2.1127,2.1129,0,0,0,0,0,0,2.126,2.1258,2.1227,2.1236,2.1231,2.1195,2.1191,2.1185,2.1179,2.1144,2.1137,2.1156,2.1112,2.1108,2.1113,2.113,2.1087,2.1087,2.1124,2.1126,2.1128,2.1184,0,0,0,0,0,0,2.1262,2.1258,2.1268,2.1237,2.1231,2.1234,2.1193,2.1185,2.1178,2.1173,2.1144,2.1138,2.1111,2.1114,2.1112,2.1129,2.1086,2.1122,2.1125,2.1128,2.1181,2.1188,2.1194,0,0,0,0,0,2.1263,2.1285,2.1268,2.1266,2.1241,2.1235,2.1232,2.1201,2.118,2.1189,2.1166,2.1139,2.1129,2.1115,2.1113,2.1129,2.1121,2.1124,2.1127,2.1178,2.1186,2.1194,0,0,0,0,0,0,2.1319,2.1281,2.1261,2.1274,2.1259,2.1226,2.1236,2.1211,2.1201,2.1196,2.1158,2.1151,2.116,2.1145,2.113,2.115,2.1121,2.1124,2.116,2.1168,2.1175,2.1178,2.1086,0,0,0,0,0,2.1333,2.1332,2.1298,2.1312,2.1305,2.1272,2.1268,2.1245,2.1227,2.122,2.1198,2.1181,2.1174,2.117,2.1162,2.1178,2.117,2.1188,2.1195,2.1201,2.1204,2.121,2.1217,2.1139,2.1139,2.1139,0,0,2.1362,2.134,2.1342,2.1323,2.1308,2.1307,2.1267,2.1267,2.1266,2.122,2.1223,2.1206,2.1185,2.1195,2.1198,2.1182,2.1224,2.1205,2.121,2.1209,2.1214,2.1221,2.1228,2.1141,2.1141,2.1141,0,0,2.1413,2.1397,2.1407,2.1393,2.1371,2.1349,2.1351,2.1322,2.1309,2.1311,2.1277,2.1274,2.1263,2.1249,2.124,2.1286,2.126,2.1284,2.132,2.1326,2.1332,2.1337,2.1353,2.1359,2.1287,2.1287,2.1287,0,2.1451,2.1448,2.1415,2.1418,2.141,2.1369,2.1378,2.1366,2.1343,2.1338,2.1321,2.1306,2.1289,2.1294,2.1305,2.13,2.1301,2.1287,2.1334,2.1339,2.1343,2.1357,2.1363,2.129,2.129,2.129,2.1289,0,2.1496,2.1494,2.1505,2.1483,2.1477,2.1483,2.145,2.1448,2.1426,2.1405,2.1407,2.1385,2.1371,2.1371,2.1349,2.1373,2.1364,2.1341,2.1311,2.1355,2.1367,2.1372,2.1295,2.1294,2.1293,2.1292,0,0,2.1581,2.1541,2.1545,2.1535,2.1507,2.1505,2.1509,2.1496,2.1494,2.1479,2.148,2.1472,2.145,2.144,2.1417,2.1423,2.1459,2.1399,2.1398,2.141,2.1483,2.15,2.1507,2.1442,2.1443,2.1443,2.1484,0,2.1626,2.1631,2.1601,2.1613,2.1611,2.1572,2.1575,2.1558,2.1539,2.1534,2.1512,2.1506,2.1479,2.1473,2.1477,2.1454,2.1473,2.145,2.1442,2.1442,2.1448,2.1513,2.1531,2.1571,2.1489,2.149,2.149,0,2.168,2.1668,2.168,2.1652,2.1649,2.1653,2.1638,2.1634,2.1613,2.1599,2.1588,2.1561,2.1562,2.1533,2.1533,2.1519,2.1513,2.1501,2.1502,2.1499,2.1468,2.1512,2.1583,2.1589,2.1498,2.1497,2.1497,0,2.174,2.1727,2.1732,2.1724,2.1691,2.1695,2.1681,2.1659,2.1653,2.164,2.1635,2.1622,2.1615,2.1605,2.1575,2.1557,2.1578,2.1547,2.1565,2.1565,2.157,2.157,2.1641,2.1568,2.1568,2.1568,2.1568,0,2.1793,2.1802,2.1758,2.1762,2.177,2.1736,2.1745,2.1727,2.1708,2.1707,2.1672,2.1671,2.1632,2.1626,2.1603,2.1606,2.1603,2.159,2.1584,2.1593,2.1594,2.1588,2.1584,2.157,2.1569,2.1569,2.1569,0,2.1861,2.1833,2.1836,2.1804,2.1796,2.1804,2.1776,2.1778,2.1756,2.1755,2.1752,2.1718,2.171,2.1679,2.1663,2.1647,2.1657,2.1645,2.1664,2.166,2.1679,2.1678,2.1748,2.1755,2.1679,2.168,2.168,0,2.1897,2.1902,2.1872,2.1868,2.1856,2.1852,2.1845,2.1811,2.1805,2.1782,2.1786,2.1775,2.1765,2.1753,2.1726,2.1714,2.17,2.1726,2.1698,2.1707,2.17,2.1699,2.1699,2.1732,2.1733,2.1734,2.1734,0,2.1963,2.1948,2.194,2.1927,2.192,2.1908,2.1894,2.1893,2.1855,2.1851,2.1842,2.1834,2.1818,2.1807,2.179,2.1774,2.1748,2.1743,2.1747,2.1756,2.1766,2.176,2.168,2.1742,2.1741,2.1741,2.174,2.174,2.2015,2.2018,2.1996,2.1989,2.1974,2.1962,2.1961,2.194,2.1932,2.1917,2.1897,2.1891,2.1869,2.1843,2.183,2.1824,2.1809,2.1815,2.1816,2.1817,2.1821,2.1768,2.1821,2.1821,2.182,2.182,2.182,0,2.2078,2.2062,2.2056,2.2037,2.2031,2.2007,2.199,2.1986,2.1981,2.1964,2.1954,2.1943,2.1932,2.1905,2.1891,2.1891,2.1879,2.1889,2.1888,2.1885,2.1836,2.1834,2.1899,2.1899,2.1899,2.1899,2.1899,2.1899,2.211,2.2114,2.2097,2.2093,2.2077,2.2071,2.2063,2.2051,2.2037,2.2027,2.2018,2.2,2.1978,2.1963,2.1951,2.1943,2.1939,2.1953,2.1941,2.1896,2.1888,2.1881,2.1879,2.1953,2.1953,2.1991,2.1991,2.1991]}]]